Weather History for Kozani, Greece

Change the Weather History Date:

Wednesday, April 10, 2013

  Actual Average Record
Temperature  
Mean Temperature 52 °F -  
Max Temperature 64 °F - - ()
Min Temperature 39 °F - - ()
Degree Days  
Heating Degree Days 14    
Growing Degree Days 2 (Base 50)    
Moisture  
Dew Point 37 °F    
Average Humidity 60    
Maximum Humidity 81    
Minimum Humidity 32    
Precipitation  
Precipitation 0.00 in - - ()
Sea Level Pressure  
Sea Level Pressure 29.95 in    
Wind  
Wind Speed 3 mph ()    
Max Wind Speed 10 mph    
Max Gust Speed -    
Visibility 6.2 miles    
Events      
T = Trace of Precipitation, MM = Missing Value Source: Averaged Metar Reports

Daily Weather History Graph

Daily Weather History Graph

Search for Another Location

Airport:

Trip Planner

Search our weather history database for the weather conditions in past years. The results will help you decide how hot, cold, wet, or windy it might be!

Date:

Astronomy

Apr. 10, 2013 Rise Set
Actual Time 7:02 AM EEST 8:06 PM EEST
Civil Twilight 6:34 AM EEST 8:34 PM EEST
Nautical Twilight 6:01 AM EEST 9:07 PM EEST
Astronomical Twilight 5:26 AM EEST 9:42 PM EEST
Moon 6:47 AM EEST (4/10) 8:23 PM EEST (4/10)
Length of Visible Light 13h 59m
Length of Day
13h 04m
Waning Crescent, 0% of the Moon is Illuminated
Apr 10
Waning Crescent
Apr 10
New
Apr 18
First Quarter
Apr 25
Full
May 2
Last Quarter

Hourly Weather History & Observations

Time (EEST) Temp. Windchill Dew Point Humidity Pressure Visibility Wind Dir Wind Speed Gust Speed Precip Events Conditions
12:20 AM 46.4 °F - 37.4 °F 71% 29.98 in - Calm Calm - N/A   Unknown
12:50 AM 44.6 °F - 37.4 °F 76% 29.98 in - Calm Calm - N/A   Unknown
1:20 AM 44.6 °F 43.1 °F 37.4 °F 76% 29.98 in - Variable 3.5 mph - N/A   Unknown
1:50 AM 44.6 °F - 37.4 °F 76% 29.98 in - Variable 2.3 mph - N/A   Unknown
2:20 AM 44.6 °F - 37.4 °F 76% 29.98 in - Variable 1.2 mph - N/A   Unknown
2:50 AM 42.8 °F 40.1 °F 37.4 °F 81% 29.98 in - North 4.6 mph - N/A   Unknown
3:20 AM 42.8 °F 40.1 °F 37.4 °F 81% 29.98 in - North 4.6 mph - N/A   Unknown
3:50 AM 42.8 °F 40.1 °F 37.4 °F 81% 29.98 in - NE 4.6 mph - N/A   Unknown
4:20 AM 42.8 °F 41.1 °F 35.6 °F 76% 29.98 in - Variable 3.5 mph - N/A   Unknown
4:50 AM 41.0 °F 38.0 °F 35.6 °F 81% 29.98 in - NNW 4.6 mph - N/A   Unknown
5:20 AM 41.0 °F 39.0 °F 35.6 °F 81% 29.95 in - Variable 3.5 mph - N/A   Unknown
5:50 AM 41.0 °F 37.1 °F 35.6 °F 81% 29.95 in - North 5.8 mph - N/A   Unknown
6:20 AM 41.0 °F - 35.6 °F 81% 29.95 in - Variable 2.3 mph - N/A   Unknown
6:50 AM 41.0 °F 38.0 °F 35.6 °F 81% 29.95 in - NNW 4.6 mph - N/A   Unknown
7:20 AM 39.2 °F 35.9 °F 33.8 °F 81% 29.95 in - NNW 4.6 mph - N/A   Unknown
7:50 AM 41.0 °F 38.0 °F 35.6 °F 81% 29.98 in - North 4.6 mph - N/A   Unknown
8:20 AM 46.4 °F 45.2 °F 39.2 °F 76% 29.98 in - Variable 3.5 mph - N/A   Unknown
8:50 AM 50.0 °F - 39.2 °F 66% 29.98 in 6.2 mi Calm Calm - N/A   Scattered Clouds
9:50 AM 51.8 °F - 41.0 °F 67% 29.98 in 6.2 mi East 4.6 mph - N/A   Mostly Cloudy
10:50 AM 55.4 °F - 39.2 °F 54% 29.98 in 6.2 mi Calm Calm - N/A   Mostly Cloudy
11:50 AM 57.2 °F - 39.2 °F 51% 29.98 in 6.2 mi SE 4.6 mph - N/A   Mostly Cloudy
12:50 PM 60.8 °F - 39.2 °F 45% 29.95 in 6.2 mi Calm Calm - N/A   Scattered Clouds
1:50 PM 60.8 °F - 37.4 °F 42% 29.95 in 6.2 mi SSW 6.9 mph - N/A   Scattered Clouds
2:50 PM 60.8 °F - 37.4 °F 42% 29.92 in 6.2 mi West 10.4 mph - N/A   Scattered Clouds
3:20 PM 60.8 °F - 35.6 °F 39% 29.92 in - WSW 9.2 mph - N/A   Unknown
3:50 PM 62.6 °F - 37.4 °F 39% 29.92 in - West 5.8 mph - N/A   Unknown
4:20 PM 60.8 °F - 33.8 °F 36% 29.92 in - WSW 9.2 mph - N/A   Unknown
4:50 PM 64.4 °F - 33.8 °F 32% 29.89 in - SW 6.9 mph - N/A   Unknown
5:20 PM 62.6 °F - 33.8 °F 34% 29.89 in - WSW 5.8 mph - N/A   Unknown
5:50 PM 64.4 °F - 33.8 °F 32% 29.89 in - WSW 9.2 mph - N/A   Unknown
6:20 PM 62.6 °F - 32.0 °F 32% 29.89 in - West 8.1 mph - N/A   Unknown
6:50 PM 60.8 °F - 35.6 °F 39% 29.89 in - WSW 5.8 mph - N/A   Unknown
7:20 PM 59.0 °F - 35.6 °F 42% 29.89 in - WSW 5.8 mph - N/A   Unknown
7:50 PM 59.0 °F - 35.6 °F 42% 29.89 in - WSW 6.9 mph - N/A   Unknown
8:20 PM 55.4 °F - 37.4 °F 51% 29.92 in - West 5.8 mph - N/A   Unknown
8:50 PM 55.4 °F - 37.4 °F 51% 29.92 in - West 5.8 mph - N/A   Unknown
9:20 PM 55.4 °F - 37.4 °F 51% 29.92 in - West 5.8 mph - N/A   Unknown
9:50 PM 53.6 °F - 35.6 °F 51% 29.92 in - Variable 3.5 mph - N/A   Unknown
10:20 PM 50.0 °F - 37.4 °F 62% 29.95 in - Variable 3.5 mph - N/A   Unknown
10:50 PM 51.8 °F - 39.2 °F 62% 29.95 in - NNW 4.6 mph - N/A   Unknown
11:20 PM 51.8 °F - 37.4 °F 58% 29.95 in - West 4.6 mph - N/A   Unknown
11:50 PM 50.0 °F - 35.6 °F 58% 29.95 in - NNW 4.6 mph - N/A   Unknown